Overview Statistics Trail Chart Weather Telemetry Raw packets
 

This is the latest recevied weather packets stored in our database for station/object KY0TEQ-13. If no packets are shown the sender has not sent any weather packets the latest 10 day(s).

<< 107 108 109 110 111 112 113 >>
Time Temp. Humidity Pressure Rain* Wind** Luminosity Snow
1787876943 27.78° C 25% 1309.9 hPa 0 mm - 69 W/m² -
1787876639 27.78° C 22% 1310 hPa 0 mm - 78 W/m² -
1787876339 28.33° C 23% 1309.9 hPa 0 mm - 88 W/m² -
1787876037 27.78° C 23% 1310.2 hPa 0 mm - 129 W/m² -
1787875733 27.22° C 23% 1310 hPa 0 mm - 117 W/m² -
1787875430 27.78° C 25% 1310.2 hPa 0 mm - 161 W/m² -
1787875124 27.78° C 24% 1310.1 hPa 0 mm - 149 W/m² -
1787874820 27.78° C 23% 1310.1 hPa 0 mm - 172 W/m² -
1787874518 27.22° C 27% 1310 hPa 0 mm - 203 W/m² -
1787874213 26.67° C 26% 1310.2 hPa 0 mm - 234 W/m² -
1787873908 26.67° C 27% 1310.4 hPa 0 mm - 255 W/m² -
1787873607 27.78° C 25% 1310.4 hPa 0 mm - 94 W/m² -
1787873303 27.78° C 22% 1310.5 hPa 0 mm - 303 W/m² -
1787873001 27.22° C 21% 1310.4 hPa 0 mm - 339 W/m² -
1787872697 28.33° C 24% 1310.5 hPa 0 mm - 367 W/m² -
1787872393 28.89° C 20% 1310.5 hPa 0 mm - 388 W/m² -
1787872093 28.33° C 21% 1310.6 hPa 0 mm - 398 W/m² -
1787871787 28.33° C 20% 1310.8 hPa 0 mm - 388 W/m² -
1787871482 27.22° C 23% 1311.1 hPa 0 mm - 395 W/m² -
1787871177 26.67° C 25% 1311.2 hPa 0 mm - 443 W/m² -
1787870877 26.67° C 25% 1311.3 hPa 0 mm - 485 W/m² -
1787870572 26.11° C 26% 1311.4 hPa 0 mm - 497 W/m² -
1787870268 25° C 27% 1311.4 hPa 0 mm - 121 W/m² -
1787869968 25° C 26% 1311.8 hPa 0 mm - 121 W/m² -
1787869662 25° C 27% 1311.8 hPa 0 mm - 134 W/m² -

* Rain latest hour (hover to see other rain measurements)
** Current wind speed in m/s (hover to see current wind gust speed)